COSMOS 1429

导读

**COSMOS 1429卫星**隶属于苏联/独联体(CIS)"宇宙"系列卫星家族,于1983年1月19日发射入轨。作为冷战时期苏联航天活动的组成部分,该系列卫星多承担军事侦察、空间环境探测等任务,COSMOS 1429也延续了这一方向,在近地轨道开展既定任务,是苏联80年代航天布局中一颗常规应用型卫星,见证了当时航天技术发展进程。

基本信息
目录编号:
13761
目录名称:
COSMOS 1429
国际标识:
1983-002A
轨道中心:
EARTH
卫星名称:
COSMOS 1429
卫星全名:
--
卫星状态:
在轨 (已飞行15855 天)
发射日期:
1983-01-19 UTC
国别 :
俄罗斯(独联体) (CIS)
星等 :
--
轨道信息
数据来源 国际轨道数据 AOE轨道数据
星历时间 2026-06-17T19:41:11+0800
4小时前
查看轨道信息
2026-06-17T02:00:00+0800
22小时前
查看轨道信息
半长轴 7870.195km 7870.173km
偏心率 0.0032469 0.0031473
轨道倾角 74.023° 74.021°
近地点辐角 132.828° 132.305°
升交点赤经 226.377° 227.344°
平近点角 336.221° 279.074°
近地点 1466.504km 1467.266km
远地点 1517.612km 1516.806km
周期 115.808分钟 115.807分钟
每日圈数 12.434393 12.434445
详细信息
使用方式:
暂无
2D轨道图
3D轨道图
轨道高度分析图
轨道倾角分析图
轨道综合分析图
查看轨道综合分析图